Weather History for Roswell, NM

Change the Weather History Date:

Friday, February 21, 2014

  Actual Average Record
Temperature  
Mean Temperature 45 °F 47 °F  
Max Temperature 68 °F 62 °F 85 °F (1920)
Min Temperature 21 °F 32 °F 2 °F (1964)
Degree Days  
Heating Degree Days 20 18  
Month to date heating degree days 411 422  
Since 1 July heating degree days 2608 2588  
Cooling Degree Days 0 0  
Month to date cooling degree days 0 0  
Year to date cooling degree days 0 0  
Moisture  
Dew Point -2 °F    
Average Humidity 18    
Maximum Humidity 29    
Minimum Humidity 7    
Precipitation  
Precipitation 0.00 in 0.02 in 0.29 in (1997)
Month to date precipitation 0.02 0.31  
Year to date precipitation 0.02 0.69  
Sea Level Pressure  
Sea Level Pressure 29.94 in    
Wind  
Wind Speed 5 mph (SSW)    
Max Wind Speed 13 mph    
Max Gust Speed 15 mph    
Visibility 10 miles    
Events      
T = Trace of Precipitation, MM = Missing Value Source: NWS Daily Summary

Daily Weather History Graph

Daily Weather History Graph

Search for Another Location

Airport:

Trip Planner

Search our weather history database for the weather conditions in past years. The results will help you decide how hot, cold, wet, or windy it might be!

Date:

Astronomy

Feb. 21, 2014 Rise Set
Actual Time 6:35 AM MST 5:48 PM MST
Civil Twilight 6:10 AM MST 6:13 PM MST
Nautical Twilight 5:41 AM MST 6:42 PM MST
Astronomical Twilight 5:12 AM MST 7:11 PM MST
Moon No Moon Rise 10:21 AM MST (2/21)
Length of Visible Light 12h 03m
Length of Day
11h 12m
Waning Gibbous, 60% of the Moon is Illuminated
Feb 21
Waning Gibbous
Feb 22
Last Quarter
Mar 1
New
Mar 8
First Quarter
Mar 16
Full

Hourly Weather History & Observations

Time (MST) Temp. Windchill Dew Point Humidity Pressure Visibility Wind Dir Wind Speed Gust Speed Precip Events Conditions
12:51 AM 35.1 °F 31.0 °F -9.0 °F 15% 30.02 in 10.0 mi West 4.6 mph - N/A   Clear
1:51 AM 28.0 °F - -9.0 °F 20% 30.03 in 10.0 mi Calm Calm - N/A   Clear
2:51 AM 33.1 °F 28.7 °F -7.1 °F 18% 30.00 in 10.0 mi WSW 4.6 mph - N/A   Clear
3:51 AM 27.0 °F 20.5 °F -8.0 °F 22% 30.01 in 10.0 mi SW 5.8 mph - N/A   Clear
4:51 AM 28.9 °F - -4.0 °F 24% 30.01 in 10.0 mi Calm Calm - N/A   Clear
5:51 AM 25.0 °F 20.7 °F -4.0 °F 28% 30.03 in 10.0 mi SSE 3.5 mph - N/A   Clear
6:51 AM 26.1 °F - -5.1 °F 26% 30.04 in 10.0 mi Calm Calm - N/A   Clear
7:51 AM 33.1 °F - -0.9 °F 23% 30.04 in 10.0 mi Calm Calm - N/A   Clear
8:51 AM 39.0 °F - -2.9 °F 17% 30.03 in 10.0 mi Calm Calm - N/A   Clear
9:51 AM 46.9 °F - -0.9 °F 14% 30.01 in 10.0 mi ENE 4.6 mph - N/A   Clear
10:51 AM 52.0 °F - -2.9 °F 10% 30.00 in 10.0 mi SSE 4.6 mph - N/A   Clear
11:51 AM 57.9 °F - -0.9 °F 9% 29.94 in 10.0 mi SSE 6.9 mph - N/A   Clear
12:51 PM 61.0 °F - -0.0 °F 9% 29.89 in 10.0 mi SSW 4.6 mph - N/A   Clear
1:51 PM 64.9 °F - 1.0 °F 8% 29.87 in 10.0 mi Variable 6.9 mph - N/A   Clear
2:51 PM 66.9 °F - -0.9 °F 7% 29.83 in 10.0 mi ESE 6.9 mph - N/A   Clear
3:51 PM 66.9 °F - -0.9 °F 7% 29.83 in 10.0 mi East 3.5 mph - N/A   Clear
4:51 PM 64.9 °F - 1.0 °F 8% 29.82 in 10.0 mi SE 5.8 mph - N/A   Clear
5:51 PM 57.0 °F - 1.9 °F 11% 29.86 in 10.0 mi South 5.8 mph - N/A   Clear
6:51 PM 50.0 °F - -0.0 °F 13% 29.88 in 10.0 mi SW 9.2 mph - N/A   Clear
7:51 PM 50.0 °F - -0.0 °F 13% 29.88 in 10.0 mi West 10.4 mph - N/A   Clear
8:51 PM 46.0 °F 41.9 °F -0.0 °F 15% 29.88 in 10.0 mi SW 8.1 mph - N/A   Clear
9:51 PM 48.9 °F - 1.0 °F 14% 29.86 in 10.0 mi West 4.6 mph - N/A   Clear
10:51 PM 42.1 °F 37.1 °F 5.0 °F 22% 29.87 in 10.0 mi North 8.1 mph - N/A   Clear
11:51 PM 44.1 °F 42.5 °F 3.0 °F 18% 29.85 in 10.0 mi NW 3.5 mph - N/A   Clear